When you browse on this site, cookies collect data to enhance your experience and personalize the content and advertising you see.
Visit our Privacy Policy to learn more. By continuing to use the site, you agree to this use of cookies and data.
  • In Sweden
  • List of Countries
  • For 7 days
  • Water Temperature
  • Weather Map
  • Weather Widgets
  • user-avatar
    Login

    Hourly Weather Rostkowice

    Today, 24 February, Monday

    Time Temperature Precipitation Wind Pressure Humidity
    00:00 +1°C° 1.1 mm 6 mps 739 mmHg 95%
    01:00 0°C° 0 mm 8 mps 741 mmHg 95%
    02:00 0°C° 0.7 mm 8 mps 742 mmHg 88%
    03:00 0°C° 0.7 mm 9 mps 742 mmHg 81%
    04:00 +1°C° 0.7 mm 9 mps 743 mmHg 75%
    05:00 +1°C° 0 mm 9 mps 745 mmHg 75%
    06:00 +1°C° 0 mm 9 mps 746 mmHg 75%
    07:00 +1°C° 0 mm 8 mps 748 mmHg 77%
    08:00 +1°C° 0 mm 8 mps 748 mmHg 76%
    09:00 +1°C° 0 mm 8 mps 749 mmHg 75%
    10:00 +2°C° 0 mm 8 mps 749 mmHg 74%
    11:00 +2°C° 0 mm 8 mps 749 mmHg 73%
    12:00 +3°C° 0 mm 7 mps 750 mmHg 72%
    13:00 +3°C° 0 mm 7 mps 750 mmHg 72%
    14:00 +3°C° 0 mm 6 mps 750 mmHg 71%
    15:00 +3°C° 0 mm 5 mps 750 mmHg 70%
    16:00 +3°C° 0 mm 5 mps 750 mmHg 69%
    17:00 +4°C° 0 mm 4 mps 750 mmHg 71%
    18:00 +3°C° 0 mm 4 mps 749 mmHg 74%
    19:00 +3°C° 0 mm 3 mps 749 mmHg 76%
    20:00 +3°C° 0 mm 3 mps 748 mmHg 78%
    21:00 +3°C° 0 mm 4 mps 748 mmHg 79%
    22:00 +1°C° 0 mm 4 mps 747 mmHg 80%
    23:00 +1°C° 0.2 mm 4 mps 746 mmHg 85%

    Tomorrow, 25 February, Tuesday

    Time Temperature Precipitation Wind Pressure Humidity
    00:00 +1°C° 0.2 mm 4 mps 745 mmHg 89%
    01:00 0°C° 0.2 mm 5 mps 744 mmHg 94%
    02:00 0°C° 1 mm 5 mps 743 mmHg 94%
    03:00 0°C° 1 mm 5 mps 741 mmHg 95%
    04:00 0°C° 1 mm 4 mps 740 mmHg 95%
    05:00 +1°C° 0.3 mm 4 mps 740 mmHg 95%
    06:00 +3°C° 0.3 mm 4 mps 739 mmHg 95%
    07:00 +4°C° 0.3 mm 4 mps 739 mmHg 96%
    08:00 +5°C° 0.2 mm 5 mps 738 mmHg 92%
    09:00 +5°C° 0.2 mm 6 mps 738 mmHg 89%
    10:00 +7°C° 0.2 mm 6 mps 738 mmHg 86%
    11:00 +8°C° 0.2 mm 6 mps 737 mmHg 84%
    12:00 +8°C° 0.2 mm 6 mps 737 mmHg 81%
    13:00 +8°C° 0.2 mm 5 mps 737 mmHg 78%
    14:00 +8°C° 0 mm 5 mps 737 mmHg 76%
    15:00 +8°C° 0 mm 5 mps 736 mmHg 74%
    16:00 +8°C° 0 mm 5 mps 736 mmHg 71%
    17:00 +7°C° 0.3 mm 5 mps 736 mmHg 75%
    18:00 +7°C° 0.3 mm 5 mps 736 mmHg 78%
    19:00 +6°C° 0.3 mm 5 mps 736 mmHg 82%
    20:00 +5°C° 0.2 mm 4 mps 736 mmHg 80%
    21:00 +4°C° 0.2 mm 4 mps 736 mmHg 78%
    22:00 +3°C° 0.2 mm 3 mps 736 mmHg 77%
    23:00 +3°C° 0 mm 3 mps 736 mmHg 78%

    Day after tomorrow, 26 February, Wednesday

    Time Temperature Precipitation Wind Pressure Humidity
    00:00 +1°C° 0 mm 4 mps 736 mmHg 79%
    01:00 +1°C° 0 mm 4 mps 736 mmHg 80%
    02:00 +1°C° 0 mm 4 mps 735 mmHg 82%
    03:00 0°C° 0 mm 4 mps 735 mmHg 84%
    04:00 0°C° 0 mm 4 mps 735 mmHg 85%
    05:00 0°C° 0 mm 4 mps 734 mmHg 86%
    06:00 0°C° 0 mm 4 mps 734 mmHg 87%
    07:00 +1°C° 0 mm 3 mps 734 mmHg 87%
    08:00 +1°C° 0 mm 4 mps 734 mmHg 81%
    09:00 +2°C° 0 mm 5 mps 734 mmHg 74%
    10:00 +5°C° 0 mm 5 mps 733 mmHg 67%
    11:00 +5°C° 0 mm 5 mps 733 mmHg 67%
    12:00 +5°C° 0 mm 4 mps 733 mmHg 67%
    13:00 +5°C° 0 mm 4 mps 733 mmHg 68%
    14:00 +5°C° 0 mm 4 mps 733 mmHg 69%
    15:00 +5°C° 0 mm 3 mps 733 mmHg 70%
    16:00 +4°C° 0 mm 3 mps 733 mmHg 72%
    17:00 +4°C° 0 mm 2 mps 733 mmHg 75%
    18:00 +4°C° 0 mm 2 mps 734 mmHg 78%
    19:00 +4°C° 0 mm 1 mps 734 mmHg 81%
    20:00 +3°C° 0.4 mm 1 mps 734 mmHg 84%
    21:00 +2°C° 0.4 mm 2 mps 734 mmHg 87%
    22:00 +2°C° 0.4 mm 2 mps 734 mmHg 89%
    23:00 +1°C° 0.3 mm 2 mps 734 mmHg 92%

    27 February, Thursday

    Time Temperature Precipitation Wind Pressure Humidity
    00:00 0°C° 0.3 mm 3 mps 735 mmHg 94%
    01:00 0°C° 0.3 mm 3 mps 735 mmHg 96%
    02:00 -1°C° 0.1 mm 4 mps 735 mmHg 93%
    03:00 -1°C° 0.1 mm 4 mps 735 mmHg 90%
    04:00 -1°C° 0.1 mm 5 mps 736 mmHg 87%
    05:00 -2°C° 0.1 mm 5 mps 736 mmHg 89%
    06:00 -3°C° 0.1 mm 6 mps 737 mmHg 91%
    07:00 -3°C° 0.1 mm 6 mps 738 mmHg 93%
    08:00 -2°C° 0.1 mm 6 mps 738 mmHg 85%
    09:00 -2°C° 0.1 mm 6 mps 739 mmHg 78%
    10:00 0°C° 0.1 mm 5 mps 740 mmHg 71%
    11:00 0°C° 0 mm 5 mps 740 mmHg 66%
    12:00 0°C° 0 mm 5 mps 740 mmHg 61%
    13:00 +1°C° 0 mm 5 mps 741 mmHg 57%
    14:00 0°C° 0.2 mm 5 mps 741 mmHg 58%
    15:00 0°C° 0.2 mm 5 mps 741 mmHg 60%
    16:00 -1°C° 0.2 mm 6 mps 741 mmHg 61%
    17:00 -1°C° 0 mm 5 mps 741 mmHg 62%
    18:00 -2°C° 0 mm 4 mps 741 mmHg 63%
    19:00 -3°C° 0 mm 4 mps 742 mmHg 65%
    20:00 -2°C° 0 mm 3 mps 742 mmHg 66%
    21:00 -4°C° 0 mm 3 mps 742 mmHg 67%
    22:00 -4°C° 0 mm 3 mps 742 mmHg 69%
    23:00 -4°C° 0 mm 3 mps 742 mmHg 68%

    28 February, Friday

    Time Temperature Precipitation Wind Pressure Humidity
    00:00 -4°C° 0 mm 3 mps 743 mmHg 67%
    01:00 -4°C° 0 mm 3 mps 743 mmHg 66%
    02:00 -4°C° 0 mm 4 mps 743 mmHg 65%
    03:00 -5°C° 0 mm 4 mps 743 mmHg 65%
    04:00 -5°C° 0 mm 4 mps 743 mmHg 64%
    05:00 -5°C° 0 mm 4 mps 744 mmHg 65%
    06:00 -5°C° 0 mm 4 mps 744 mmHg 66%
    07:00 -5°C° 0 mm 4 mps 745 mmHg 67%
    08:00 -5°C° 0 mm 5 mps 745 mmHg 63%
    09:00 -4°C° 0 mm 5 mps 745 mmHg 59%
    10:00 -3°C° 0 mm 6 mps 746 mmHg 54%
    11:00 -2°C° 0 mm 6 mps 746 mmHg 50%
    12:00 -2°C° 0 mm 6 mps 746 mmHg 46%
    13:00 -1°C° 0 mm 6 mps 747 mmHg 42%
    14:00 -1°C° 0 mm 6 mps 747 mmHg 44%
    15:00 -2°C° 0 mm 6 mps 747 mmHg 47%
    16:00 -1°C° 0 mm 5 mps 748 mmHg 50%
    17:00 -2°C° 0 mm 4 mps 748 mmHg 56%
    18:00 -3°C° 0 mm 4 mps 748 mmHg 62%
    19:00 -4°C° 0 mm 3 mps 749 mmHg 69%
    20:00 -3°C° 0 mm 2 mps 749 mmHg 69%
    21:00 -3°C° 0 mm 2 mps 749 mmHg 70%
    22:00 -3°C° 0 mm 2 mps 749 mmHg 71%
    23:00 -4°C° 0 mm 2 mps 749 mmHg 70%

    29 February, Saturday

    Time Temperature Precipitation Wind Pressure Humidity
    00:00 -2°C° 0 mm 1 mps 749 mmHg 69%
    01:00 -2°C° 0 mm 1 mps 748 mmHg 69%
    02:00 -2°C° 0 mm 1 mps 748 mmHg 68%
    03:00 -2°C° 0 mm 1 mps 747 mmHg 67%
    04:00 -1°C° 0 mm 1 mps 746 mmHg 66%
    05:00 -3°C° 0 mm 2 mps 746 mmHg 65%
    06:00 -4°C° 0 mm 3 mps 745 mmHg 63%
    07:00 -4°C° 0 mm 3 mps 745 mmHg 62%
    08:00 -3°C° 0 mm 4 mps 744 mmHg 58%
    09:00 -2°C° 0 mm 5 mps 743 mmHg 53%
    10:00 -3°C° 0 mm 6 mps 742 mmHg 49%
    11:00 -2°C° 0 mm 6 mps 741 mmHg 57%
    12:00 -2°C° 0 mm 6 mps 740 mmHg 65%
    13:00 -2°C° 0 mm 7 mps 739 mmHg 74%
    14:00 -2°C° 0.1 mm 6 mps 738 mmHg 80%
    15:00 -2°C° 0.1 mm 6 mps 738 mmHg 87%
    16:00 -2°C° 0.1 mm 6 mps 737 mmHg 94%
    17:00 -2°C° 0.5 mm 6 mps 736 mmHg 95%
    18:00 0°C° 0.5 mm 5 mps 735 mmHg 96%
    19:00 0°C° 0.5 mm 5 mps 734 mmHg 97%
    20:00 +1°C° 1.6 mm 5 mps 734 mmHg 97%
    21:00 +1°C° 1.6 mm 5 mps 733 mmHg 97%
    22:00 +2°C° 1.6 mm 5 mps 733 mmHg 97%
    23:00 +1°C° 0.7 mm 5 mps 733 mmHg 91%
    Show more